sat.trackr.live / text

‹ back to catalog

STARLINK-32679

NORAD 62507 · 2025-003W

PAYLOAD ACTIVE UNKNOWN

§ Identity

Operator
Country
US
Launch date
2025-01-06
Launch site
AFETR
Launch vehicle
Mass (kg)
RCS (m²)

Purposes: comms

External: N2YO · Heavens-Above · Gunter

§ Orbital elements

Epoch: 2026-05-24T21:49:07.718304Z

Period
94.27 min
Inclination
42.9980°
Eccentricity
0.0001100
Mean motion
15.27593263 rev/d
Perigee alt
482.3 km
Apogee alt
483.8 km
Semi-major
6,861.1 km
B*
5.5500e-4
RAAN
218.8865°
Arg perigee
279.7498°
Mean anomaly
80.3229°
Rev number
7,832

§ Raw data

STARLINK-326791 62507U 25003W   26144.90911711  .00015048  00000+0  55500-3 0  99912 62507  42.9980 218.8865 0001100 279.7498  80.3229 15.27593263 78327

JSON: /api/v1/satellites/62507 · /tle

For live sub-satellite position, see the globe view (requires WebGL).

§ Visibility from observer

Set your observer location to see the next 7 days of passes ≥ 10°. The values pass through the URL so the page stays shareable.

No JS? Fill the form by hand. The geolocation button needs JavaScript.